Time,TemperatureF,DewpointF,PressureIn,WindDirection,WindDirectionDegrees,WindSpeedMPH,WindSpeedGustMPH,Humidity,HourlyPrecipIn,Conditions,Clouds,dailyrainin,SoftwareType,DateUTC
2013-03-27 00:02:00,26.0,20.0,-100.00,North,3,2.0,3.0,79,0.00,,,-99.99,,2013-03-27 06:02:00,
2013-03-27 00:12:00,26.0,20.0,-100.00,North,3,2.0,3.0,78,0.00,,,-99.99,,2013-03-27 06:12:00,
2013-03-27 00:22:00,26.0,20.0,-100.00,North,3,2.0,3.0,78,0.00,,,-99.99,,2013-03-27 06:22:00,
2013-03-27 00:32:00,26.0,20.0,-100.00,North,3,2.0,3.0,78,0.00,,,-99.99,,2013-03-27 06:32:00,
2013-03-27 00:42:00,26.0,20.0,-100.00,NW,319,1.0,2.0,79,0.00,,,-99.99,,2013-03-27 06:42:00,
2013-03-27 00:53:00,25.0,20.0,-100.00,NW,326,1.0,1.0,79,0.00,,,-99.99,,2013-03-27 06:53:00,
2013-03-27 01:02:00,25.0,20.0,-100.00,NW,326,1.0,1.0,79,0.00,,,-99.99,,2013-03-27 07:02:00,
2013-03-27 01:12:00,24.0,20.0,-100.00,North,360,1.0,2.0,82,0.00,,,-99.99,,2013-03-27 07:12:00,
2013-03-27 01:22:00,24.0,20.0,-100.00,North,360,1.0,2.0,82,0.00,,,-99.99,,2013-03-27 07:22:00,
2013-03-27 01:32:00,24.0,20.0,-100.00,North,360,1.0,2.0,82,0.00,,,-99.99,,2013-03-27 07:32:00,
2013-03-27 01:42:00,24.0,20.0,-100.00,North,360,1.0,2.0,82,0.00,,,-99.99,,2013-03-27 07:42:00,
2013-03-27 02:00:00,24.0,19.0,-100.00,NNW,342,1.0,2.0,83,0.00,,,-99.99,,2013-03-27 08:00:00,
2013-03-27 02:02:00,23.0,19.0,-100.00,NW,309,1.0,2.0,84,0.00,,,-99.99,,2013-03-27 08:02:00,
2013-03-27 02:12:00,23.0,19.0,-100.00,NW,309,1.0,2.0,84,0.00,,,-99.99,,2013-03-27 08:12:00,
2013-03-27 02:22:00,24.0,19.0,-100.00,NNW,343,2.0,2.0,83,0.00,,,-99.99,,2013-03-27 08:22:00,
2013-03-27 02:32:00,24.0,19.0,-100.00,NNW,343,2.0,2.0,83,0.00,,,-99.99,,2013-03-27 08:32:00,
2013-03-27 02:43:00,24.0,19.0,-100.00,NNW,342,1.0,2.0,83,0.00,,,-99.99,,2013-03-27 08:43:00,
2013-03-27 02:52:00,24.0,19.0,-100.00,NNW,342,1.0,2.0,83,0.00,,,-99.99,,2013-03-27 08:52:00,
2013-03-27 03:12:00,23.0,19.0,-100.00,WNW,301,0.0,0.0,84,0.00,,,-99.99,,2013-03-27 09:12:00,
2013-03-27 03:22:00,22.0,18.0,-100.00,WSW,256,1.0,1.0,85,0.00,,,-99.99,,2013-03-27 09:22:00,
2013-03-27 03:32:00,22.0,18.0,-100.00,WSW,256,1.0,1.0,85,0.00,,,-99.99,,2013-03-27 09:32:00,
2013-03-27 03:42:00,23.0,18.0,-100.00,NW,304,1.0,1.0,82,0.00,,,-99.99,,2013-03-27 09:42:00,
2013-03-27 03:52:00,23.0,19.0,-100.00,NW,304,0.0,0.0,83,0.00,,,-99.99,,2013-03-27 09:52:00,
2013-03-27 04:02:00,23.0,19.0,-100.00,NW,304,0.0,0.0,83,0.00,,,-99.99,,2013-03-27 10:02:00,
2013-03-27 04:12:00,23.0,19.0,-100.00,West,265,0.0,1.0,83,0.00,,,-99.99,,2013-03-27 10:12:00,
2013-03-27 04:22:00,23.0,18.0,-100.00,West,265,0.0,0.0,83,0.00,,,-99.99,,2013-03-27 10:22:00,
2013-03-27 04:30:00,25.0,20.0,-100.00,SSE,148,2.0,3.0,82,0.00,,,-99.99,,2013-03-27 10:30:00,
2013-03-27 04:32:00,23.0,18.0,-100.00,West,265,0.0,0.0,83,0.00,,,-99.99,,2013-03-27 10:32:00,
2013-03-27 04:42:00,24.0,19.0,-100.00,SSE,158,1.0,2.0,82,0.00,,,-99.99,,2013-03-27 10:42:00,
2013-03-27 04:53:00,24.0,19.0,-100.00,SSE,158,1.0,2.0,82,0.00,,,-99.99,,2013-03-27 10:53:00,
2013-03-27 05:02:00,24.0,19.0,-100.00,SSE,158,1.0,2.0,82,0.00,,,-99.99,,2013-03-27 11:02:00,
2013-03-27 05:11:00,25.0,20.0,-100.00,SSE,148,2.0,3.0,82,0.00,,,-99.99,,2013-03-27 11:11:00,
2013-03-27 05:22:00,25.0,20.0,-100.00,SSE,148,2.0,3.0,82,0.00,,,-99.99,,2013-03-27 11:22:00,
2013-03-27 05:42:00,27.0,20.0,-100.00,SE,134,3.0,4.0,75,0.00,,,-99.99,,2013-03-27 11:42:00,
2013-03-27 05:52:00,27.0,20.0,-100.00,SE,137,4.0,5.0,76,0.00,,,-99.99,,2013-03-27 11:52:00,
2013-03-27 06:02:00,27.0,20.0,-100.00,SE,137,4.0,5.0,76,0.00,,,-99.99,,2013-03-27 12:02:00,
2013-03-27 06:12:00,27.0,20.0,-100.00,SE,137,4.0,5.0,76,0.00,,,-99.99,,2013-03-27 12:12:00,
2013-03-27 06:22:00,27.0,20.0,-100.00,SE,141,3.0,4.0,76,0.00,,,-99.99,,2013-03-27 12:22:00,
2013-03-27 06:32:00,27.0,20.0,-100.00,SE,141,3.0,4.0,76,0.00,,,-99.99,,2013-03-27 12:32:00,
2013-03-27 06:42:00,26.0,20.0,-100.00,SE,138,3.0,4.0,78,0.00,,,-99.99,,2013-03-27 12:42:00,
2013-03-27 06:52:00,27.0,21.0,-100.00,SE,131,3.0,5.0,79,0.00,,,-99.99,,2013-03-27 12:52:00,
2013-03-27 07:02:00,27.0,21.0,-100.00,SE,131,3.0,5.0,79,0.00,,,-99.99,,2013-03-27 13:02:00,
2013-03-27 07:12:00,27.0,21.0,-100.00,SE,131,3.0,5.0,79,0.00,,,-99.99,,2013-03-27 13:12:00,
2013-03-27 07:22:00,27.0,21.0,-100.00,SE,133,4.0,4.0,80,0.00,,,-99.99,,2013-03-27 13:22:00,
2013-03-27 07:32:00,27.0,21.0,-100.00,SE,133,4.0,4.0,80,0.00,,,-99.99,,2013-03-27 13:32:00,
2013-03-27 07:42:00,26.0,21.0,-100.00,SE,137,4.0,4.0,81,0.00,,,-99.99,,2013-03-27 13:42:00,
2013-03-27 07:53:00,26.0,21.0,-100.00,SE,137,4.0,5.0,81,0.00,,,-99.99,,2013-03-27 13:53:00,
2013-03-27 08:02:00,26.0,21.0,-100.00,SE,137,4.0,5.0,81,0.00,,,-99.99,,2013-03-27 14:02:00,
2013-03-27 08:11:00,26.0,21.0,-100.00,SE,137,4.0,5.0,81,0.00,,,-99.99,,2013-03-27 14:11:00,
2013-03-27 08:22:00,26.0,22.0,-100.00,SE,140,5.0,7.0,81,0.00,,,-99.99,,2013-03-27 14:22:00,
2013-03-27 08:32:00,26.0,22.0,-100.00,SE,140,5.0,7.0,81,0.00,,,-99.99,,2013-03-27 14:32:00,
2013-03-27 08:42:00,27.0,22.0,-100.00,SE,137,4.0,4.0,80,0.00,,,-99.99,,2013-03-27 14:42:00,
2013-03-27 08:52:00,28.0,22.0,-100.00,SE,137,4.0,5.0,77,0.00,,,-99.99,,2013-03-27 14:52:00,
2013-03-27 09:02:00,28.0,22.0,-100.00,SE,137,4.0,5.0,77,0.00,,,-99.99,,2013-03-27 15:02:00,
2013-03-27 09:11:00,29.0,23.0,-100.00,SE,141,5.0,6.0,76,0.00,,,-99.99,,2013-03-27 15:11:00,
2013-03-27 09:22:00,29.0,23.0,-100.00,SE,141,5.0,6.0,76,0.00,,,-99.99,,2013-03-27 15:22:00,
2013-03-27 09:32:00,29.0,23.0,-100.00,SE,141,5.0,6.0,76,0.00,,,-99.99,,2013-03-27 15:32:00,
2013-03-27 09:42:00,30.0,23.0,-100.00,SE,144,5.0,7.0,74,0.00,,,-99.99,,2013-03-27 15:42:00,
2013-03-27 09:52:00,32.0,24.0,-100.00,SE,136,6.0,9.0,71,0.00,,,-99.99,,2013-03-27 15:52:00,
2013-03-27 10:02:00,32.0,24.0,-100.00,SE,136,6.0,9.0,71,0.00,,,-99.99,,2013-03-27 16:02:00,
2013-03-27 10:12:00,32.0,25.0,-100.00,SE,144,6.0,8.0,74,0.00,,,-99.99,,2013-03-27 16:12:00,
2013-03-27 10:22:00,32.0,25.0,-100.00,SE,144,6.0,8.0,74,0.00,,,-99.99,,2013-03-27 16:22:00,
2013-03-27 10:32:00,32.0,25.0,-100.00,SE,144,6.0,8.0,74,0.00,,,-99.99,,2013-03-27 16:32:00,
2013-03-27 10:42:00,35.0,27.0,-100.00,SSE,160,6.0,14.0,70,0.00,,,-99.99,,2013-03-27 16:42:00,
2013-03-27 10:52:00,35.0,27.0,-100.00,SSE,160,6.0,14.0,70,0.00,,,-99.99,,2013-03-27 16:52:00,
2013-03-27 11:11:00,37.0,26.0,-100.00,SSE,147,7.0,11.0,65,0.00,,,-99.99,,2013-03-27 17:11:00,
2013-03-27 11:22:00,38.0,27.0,-100.00,SSE,158,8.0,15.0,63,0.00,,,-99.99,,2013-03-27 17:22:00,
2013-03-27 11:32:00,38.0,27.0,-100.00,SSE,158,8.0,15.0,63,0.00,,,-99.99,,2013-03-27 17:32:00,
2013-03-27 11:44:00,39.0,27.0,-100.00,SSE,165,7.0,11.0,62,0.00,,,-99.99,,2013-03-27 17:44:00,
2013-03-27 11:52:00,39.0,27.0,-100.00,SSE,165,7.0,11.0,62,0.00,,,-99.99,,2013-03-27 17:52:00,
2013-03-27 12:00:00,40.0,27.0,-100.00,SSE,148,7.0,12.0,59,0.00,,,-99.99,,2013-03-27 18:00:00,
2013-03-27 12:12:00,40.0,27.0,-100.00,South,176,5.0,10.0,58,0.00,,,-99.99,,2013-03-27 18:12:00,
2013-03-27 12:22:00,40.0,27.0,-100.00,SE,143,9.0,14.0,59,0.00,,,-99.99,,2013-03-27 18:22:00,
2013-03-27 12:32:00,40.0,27.0,-100.00,SE,143,9.0,14.0,59,0.00,,,-99.99,,2013-03-27 18:32:00,
2013-03-27 12:42:00,40.0,27.0,-100.00,SSE,148,7.0,12.0,59,0.00,,,-99.99,,2013-03-27 18:42:00,
2013-03-27 12:53:00,40.0,27.0,-100.00,SSE,148,7.0,12.0,59,0.00,,,-99.99,,2013-03-27 18:53:00,
2013-03-27 13:12:00,42.0,27.0,-100.00,South,181,4.0,7.0,55,0.00,,,-99.99,,2013-03-27 19:12:00,
2013-03-27 13:21:00,41.0,27.0,-100.00,SE,143,7.0,12.0,55,0.00,,,-99.99,,2013-03-27 19:21:00,
2013-03-27 13:32:00,41.0,27.0,-100.00,SE,143,7.0,12.0,55,0.00,,,-99.99,,2013-03-27 19:32:00,
2013-03-27 13:42:00,43.0,27.0,-100.00,SSE,152,5.0,9.0,53,0.00,,,-99.99,,2013-03-27 19:42:00,
2013-03-27 13:52:00,43.0,27.0,-100.00,SSE,151,6.0,8.0,53,0.00,,,-99.99,,2013-03-27 19:52:00,
2013-03-27 14:02:00,43.0,27.0,-100.00,SSE,151,6.0,8.0,53,0.00,,,-99.99,,2013-03-27 20:02:00,
2013-03-27 14:12:00,42.0,27.0,-100.00,SSE,155,6.0,10.0,54,0.00,,,-99.99,,2013-03-27 20:12:00,
2013-03-27 14:22:00,45.0,26.0,-100.00,SSE,160,5.0,8.0,47,0.00,,,-99.99,,2013-03-27 20:22:00,
2013-03-27 14:32:00,45.0,26.0,-100.00,SSE,160,5.0,8.0,47,0.00,,,-99.99,,2013-03-27 20:32:00,
2013-03-27 14:42:00,43.0,26.0,-100.00,SSE,161,7.0,11.0,51,0.00,,,-99.99,,2013-03-27 20:42:00,
2013-03-27 14:52:00,43.0,26.0,-100.00,SE,130,7.0,10.0,51,0.00,,,-99.99,,2013-03-27 20:52:00,
2013-03-27 15:02:00,43.0,26.0,-100.00,SE,130,7.0,10.0,51,0.00,,,-99.99,,2013-03-27 21:02:00,
2013-03-27 15:12:00,44.0,27.0,-100.00,SSW,202,3.0,6.0,52,0.00,,,-99.99,,2013-03-27 21:12:00,
2013-03-27 15:22:00,44.0,27.0,-100.00,SSW,202,3.0,6.0,52,0.00,,,-99.99,,2013-03-27 21:22:00,
2013-03-27 15:32:00,44.0,27.0,-100.00,SSW,202,3.0,6.0,52,0.00,,,-99.99,,2013-03-27 21:32:00,
2013-03-27 15:42:00,44.0,27.0,-100.00,South,172,6.0,9.0,52,0.00,,,-99.99,,2013-03-27 21:42:00,
2013-03-27 15:52:00,42.0,27.0,-100.00,SE,141,6.0,9.0,53,0.00,,,-99.99,,2013-03-27 21:52:00,
2013-03-27 16:02:00,42.0,27.0,-100.00,SE,141,6.0,9.0,53,0.00,,,-99.99,,2013-03-27 22:02:00,
2013-03-27 16:12:00,43.0,27.0,-100.00,WSW,258,3.0,5.0,52,0.00,,,-99.99,,2013-03-27 22:12:00,
2013-03-27 16:23:00,43.0,27.0,-100.00,WSW,258,3.0,5.0,52,0.00,,,-99.99,,2013-03-27 22:23:00,
2013-03-27 16:32:00,43.0,27.0,-100.00,WSW,258,3.0,5.0,52,0.00,,,-99.99,,2013-03-27 22:32:00,
2013-03-27 16:42:00,40.0,31.0,-100.00,WSW,250,4.0,10.0,70,0.28,,,-99.99,,2013-03-27 22:42:00,
2013-03-27 16:52:00,40.0,31.0,-100.00,WNW,298,5.0,8.0,68,0.00,,,-99.99,,2013-03-27 22:52:00,
2013-03-27 17:02:00,40.0,31.0,-100.00,WNW,298,5.0,8.0,68,0.00,,,-99.99,,2013-03-27 23:02:00,
2013-03-27 17:12:00,44.0,30.0,-100.00,West,261,2.0,5.0,57,0.00,,,-99.99,,2013-03-27 23:12:00,
2013-03-27 17:22:00,44.0,30.0,-100.00,West,261,2.0,5.0,57,0.00,,,-99.99,,2013-03-27 23:22:00,
2013-03-27 17:32:00,44.0,30.0,-100.00,West,261,2.0,5.0,57,0.00,,,-99.99,,2013-03-27 23:32:00,
2013-03-27 17:42:00,44.0,29.0,-100.00,SSW,206,1.0,1.0,55,0.00,,,-99.99,,2013-03-27 23:42:00,
2013-03-27 17:52:00,42.0,26.0,-100.00,SSW,193,4.0,7.0,52,0.00,,,-99.99,,2013-03-27 23:52:00,
2013-03-27 18:02:00,42.0,26.0,-100.00,SSW,193,4.0,7.0,52,0.00,,,-99.99,,2013-03-28 00:02:00,
2013-03-27 18:12:00,43.0,27.0,-100.00,South,175,2.0,3.0,54,0.00,,,-99.99,,2013-03-28 00:12:00,
2013-03-27 18:22:00,42.0,27.0,-100.00,SSE,167,4.0,9.0,56,0.00,,,-99.99,,2013-03-28 00:22:00,
2013-03-27 18:32:00,42.0,27.0,-100.00,SSE,167,4.0,9.0,56,0.00,,,-99.99,,2013-03-28 00:32:00,
2013-03-27 18:42:00,41.0,27.0,-100.00,South,174,4.0,8.0,56,0.00,,,-99.99,,2013-03-28 00:42:00,
2013-03-27 18:52:00,39.0,31.0,-100.00,WSW,253,3.0,7.0,72,0.00,,,-99.99,,2013-03-28 00:52:00,
2013-03-27 19:02:00,39.0,31.0,-100.00,WSW,253,3.0,7.0,72,0.00,,,-99.99,,2013-03-28 01:02:00,
2013-03-27 19:12:00,37.0,32.0,-100.00,SW,227,3.0,6.0,82,0.20,,,-99.99,,2013-03-28 01:12:00,
2013-03-27 19:22:00,36.0,33.0,-100.00,SE,141,0.0,1.0,87,0.00,,,-99.99,,2013-03-28 01:22:00,
2013-03-27 19:32:00,36.0,33.0,-100.00,SE,141,0.0,1.0,87,0.00,,,-99.99,,2013-03-28 01:32:00,
2013-03-27 19:42:00,36.0,33.0,-100.00,SE,141,0.0,1.0,87,0.00,,,-99.99,,2013-03-28 01:42:00,
2013-03-27 19:52:00,36.0,33.0,-100.00,SE,145,3.0,5.0,88,0.00,,,-99.99,,2013-03-28 01:52:00,
2013-03-27 20:02:00,36.0,33.0,-100.00,SE,145,3.0,5.0,88,0.00,,,-99.99,,2013-03-28 02:02:00,
2013-03-27 20:12:00,33.0,33.0,-100.00,South,189,1.0,2.0,100,0.00,,,-99.99,,2013-03-28 02:12:00,
2013-03-27 20:22:00,33.0,33.0,-100.00,South,189,1.0,2.0,100,0.00,,,-99.99,,2013-03-28 02:22:00,
2013-03-27 20:32:00,33.0,33.0,-100.00,South,189,1.0,2.0,100,0.00,,,-99.99,,2013-03-28 02:32:00,
2013-03-27 20:42:00,33.0,33.0,-100.00,South,189,1.0,2.0,100,0.00,,,-99.99,,2013-03-28 02:42:00,
2013-03-27 21:02:00,31.0,31.0,-100.00,South,176,0.0,1.0,100,0.00,,,-99.99,,2013-03-28 03:02:00,
2013-03-27 21:12:00,31.0,31.0,-100.00,SSE,161,0.0,1.0,100,0.00,,,-99.99,,2013-03-28 03:12:00,
2013-03-27 21:22:00,30.0,30.0,-100.00,South,172,1.0,1.0,100,0.00,,,-99.99,,2013-03-28 03:22:00,
2013-03-27 21:33:00,30.0,30.0,-100.00,South,172,1.0,1.0,100,0.00,,,-99.99,,2013-03-28 03:33:00,
2013-03-27 21:42:00,31.0,31.0,-100.00,SSE,147,2.0,2.0,100,0.00,,,-99.99,,2013-03-28 03:42:00,
2013-03-27 21:53:00,31.0,31.0,-100.00,SSE,148,1.0,1.0,100,0.00,,,-99.99,,2013-03-28 03:53:00,
2013-03-27 22:02:00,31.0,31.0,-100.00,SSE,148,1.0,1.0,100,0.00,,,-99.99,,2013-03-28 04:02:00,
2013-03-27 22:12:00,31.0,31.0,-100.00,SE,136,1.0,1.0,100,0.00,,,-99.99,,2013-03-28 04:12:00,
2013-03-27 22:22:00,31.0,31.0,-100.00,SE,140,1.0,2.0,100,0.00,,,-99.99,,2013-03-28 04:22:00,
2013-03-27 22:32:00,31.0,31.0,-100.00,SE,140,1.0,2.0,100,0.00,,,-99.99,,2013-03-28 04:32:00,
2013-03-27 22:42:00,31.0,31.0,-100.00,SSE,152,0.0,0.0,100,0.00,,,-99.99,,2013-03-28 04:42:00,
2013-03-27 22:52:00,31.0,31.0,-100.00,NW,323,1.0,2.0,100,0.00,,,-99.99,,2013-03-28 04:52:00,
2013-03-27 23:02:00,31.0,31.0,-100.00,NW,323,1.0,2.0,100,0.00,,,-99.99,,2013-03-28 05:02:00,
2013-03-27 23:12:00,30.0,30.0,-100.00,NW,315,1.0,2.0,100,0.00,,,-99.99,,2013-03-28 05:12:00,
2013-03-27 23:22:00,29.0,29.0,-100.00,West,268,1.0,1.0,100,0.00,,,-99.99,,2013-03-28 05:22:00,
2013-03-27 23:32:00,29.0,29.0,-100.00,West,268,1.0,1.0,100,0.00,,,-99.99,,2013-03-28 05:32:00,
2013-03-27 23:43:00,29.0,29.0,-100.00,West,268,1.0,1.0,100,0.00,,,-99.99,,2013-03-28 05:43:00,
2013-03-27 23:52:00,28.0,28.0,-100.00,NNW,337,1.0,2.0,100,0.00,,,-99.99,,2013-03-28 05:52:00,